Weather History for Ladysmith, WI

Change the Weather History Date:

Friday, November 29, 2013

  Actual Average (KRPD) Record (KRPD)
Temperature  
Mean Temperature 12 °F -  
Max Temperature 27 °F 33 °F 60 °F (1998)
Min Temperature -3 °F 20 °F 5 °F (2013)
Degree Days  
Heating Degree Days 53    
Moisture  
Dew Point 9 °F    
Average Humidity 80    
Maximum Humidity 95    
Minimum Humidity 66    
Precipitation  
Precipitation 0.00 in - - ()
Sea Level Pressure  
Sea Level Pressure 30.41 in    
Wind  
Wind Speed 3 mph (SSE)    
Max Wind Speed 16 mph    
Max Gust Speed 22 mph    
Visibility 10 miles    
Events      
Averages and records for this station are not official NWS values.
T = Trace of Precipitation, MM = Missing Value Source: NWS Daily Summary

Daily Weather History Graph

Daily Weather History Graph

Search for Another Location

Airport:

Trip Planner

Search our weather history database for the weather conditions in past years. The results will help you decide how hot, cold, wet, or windy it might be!

Date:

Astronomy

Nov. 29, 2013 Rise Set
Actual Time 7:21 AM CST 4:22 PM CST
Civil Twilight 6:48 AM CST 4:56 PM CST
Nautical Twilight 6:11 AM CST 5:33 PM CST
Astronomical Twilight 5:35 AM CST 6:08 PM CST
Moon 3:17 AM CST (11/29) 2:16 PM CST (11/29)
Length of Visible Light 10h 08m
Length of Day
9h 01m
Waning Crescent, 14% of the Moon is Illuminated
Nov 29
Waning Crescent
Dec 2
New
Dec 9
First Quarter
Dec 17
Full
Dec 25
Last Quarter

Hourly Weather History & Observations

Time (CST) Temp. Windchill Dew Point Humidity Pressure Visibility Wind Dir Wind Speed Gust Speed Precip Events Conditions
12:15 AM 2.7 °F - -0.6 °F 86% 30.48 in 10.0 mi Calm Calm - N/A   Clear
12:35 AM 2.3 °F - -0.9 °F 86% 30.48 in 10.0 mi Calm Calm - N/A   Clear
12:55 AM 1.2 °F - -2.4 °F 85% 30.48 in 10.0 mi Calm Calm - N/A   Clear
1:15 AM 1.0 °F - -2.2 °F 86% 30.48 in 10.0 mi Calm Calm - N/A   Clear
1:35 AM 1.0 °F - -2.6 °F 85% 30.48 in 10.0 mi Calm Calm - N/A   Clear
1:55 AM -0.4 °F - -3.8 °F 85% 30.49 in 10.0 mi Calm Calm - N/A   Clear
2:15 AM -0.0 °F - -3.6 °F 85% 30.50 in 10.0 mi Calm Calm - N/A   Clear
2:35 AM 0.5 °F - -2.9 °F 85% 30.50 in 10.0 mi Calm Calm - N/A   Clear
2:55 AM -0.4 °F - -4.0 °F 85% 30.50 in 10.0 mi Calm Calm - N/A   Clear
3:15 AM -2.0 °F - -5.8 °F 84% 30.49 in 10.0 mi Calm Calm - N/A   Clear
3:35 AM -2.7 °F - -6.7 °F 83% 30.49 in 10.0 mi Calm Calm - N/A   Clear
3:55 AM -1.7 °F - -4.9 °F 86% 30.50 in 10.0 mi Calm Calm - N/A   Clear
4:15 AM -1.1 °F - -4.4 °F 86% 30.50 in 10.0 mi Calm Calm - N/A   Clear
4:35 AM -2.2 °F - -6.2 °F 83% 30.50 in 10.0 mi Calm Calm - N/A   Clear
4:55 AM -2.4 °F - -6.0 °F 85% 30.51 in 10.0 mi Calm Calm - N/A   Clear
5:15 AM -1.8 °F - -5.8 °F 83% 30.51 in 10.0 mi Calm Calm - N/A   Clear
5:35 AM -2.6 °F - -6.2 °F 85% 30.51 in 10.0 mi Calm Calm - N/A   Clear
5:55 AM -3.1 °F - -6.7 °F 85% 30.51 in 10.0 mi Calm Calm - N/A   Clear
6:15 AM -2.6 °F - -6.3 °F 84% 30.52 in 10.0 mi Calm Calm - N/A   Clear
6:35 AM -2.6 °F - -6.0 °F 85% 30.53 in 10.0 mi Calm Calm - N/A   Clear
6:55 AM -2.2 °F - -6.0 °F 84% 30.52 in 10.0 mi Calm Calm - N/A   Clear
7:15 AM -0.4 °F - -4.0 °F 85% 30.53 in 10.0 mi Calm Calm - N/A   Clear
7:35 AM 0.5 °F - -2.9 °F 85% 30.52 in 10.0 mi Calm Calm - N/A   Clear
7:55 AM 2.5 °F - -0.9 °F 86% 30.53 in 10.0 mi Calm Calm - N/A   Scattered Clouds
8:15 AM 4.1 °F - 1.0 °F 87% 30.53 in 10.0 mi Calm Calm - N/A   Scattered Clouds
8:35 AM 5.9 °F - 3.0 °F 88% 30.53 in 10.0 mi Calm Calm - N/A   Clear
8:55 AM 7.0 °F - 4.3 °F 89% 30.53 in 7.0 mi Calm Calm - N/A   Clear
9:15 AM 8.6 °F - 5.9 °F 89% 30.53 in 10.0 mi Calm Calm - N/A   Clear
9:35 AM 10.2 °F - 7.7 °F 90% 30.53 in 10.0 mi Calm Calm - N/A   Clear
9:55 AM 13.5 °F - 11.3 °F 91% 30.53 in 10.0 mi Calm Calm - N/A   Clear
10:15 AM 14.7 °F - 12.7 °F 92% 30.54 in 10.0 mi Calm Calm - N/A   Clear
10:35 AM 16.0 °F 10.4 °F 14.0 °F 92% 30.54 in 10.0 mi SE 3.5 mph - N/A   Clear
10:55 AM 17.1 °F 10.0 °F 14.9 °F 91% 30.52 in 10.0 mi SE 4.6 mph - N/A   Clear
11:15 AM 18.1 °F 11.3 °F 16.3 °F 93% 30.51 in 10.0 mi SSE 4.6 mph - N/A   Clear
11:35 AM 19.4 °F 10.4 °F 17.6 °F 93% 30.49 in 10.0 mi SSE 6.9 mph - N/A   Clear
11:55 AM 21.2 °F 13.6 °F 19.9 °F 95% 30.48 in 10.0 mi SSE 5.8 mph - N/A   Clear
12:15 PM 20.8 °F 12.1 °F 19.2 °F 93% 30.47 in 10.0 mi SSE 6.9 mph - N/A   Mostly Cloudy
12:35 PM 21.7 °F 13.2 °F 18.3 °F 87% 30.47 in 10.0 mi SE 6.9 mph - N/A   Overcast
12:55 PM 23.5 °F 14.5 °F 15.6 °F 72% 30.45 in 10.0 mi SSE 8.1 mph - N/A   Overcast
1:15 PM 24.6 °F 15.1 °F 15.6 °F 69% 30.44 in 10.0 mi SSE 9.2 mph - N/A   Overcast
1:35 PM 25.2 °F 16.5 °F 15.4 °F 67% 30.43 in 10.0 mi SE 8.1 mph - N/A   Overcast
1:55 PM 25.7 °F 16.4 °F 16.0 °F 67% 30.41 in 10.0 mi SSE 9.2 mph - N/A   Overcast
2:15 PM 26.1 °F 16.2 °F 16.0 °F 66% 30.40 in 10.0 mi SSE 10.4 mph - N/A   Scattered Clouds
2:35 PM 25.5 °F 16.2 °F 16.0 °F 67% 30.39 in 10.0 mi SE 9.2 mph - N/A   Clear
2:55 PM 25.0 °F 14.8 °F 16.2 °F 69% 30.38 in 10.0 mi SSE 10.4 mph - N/A   Clear
3:15 PM 25.2 °F 15.7 °F 16.5 °F 70% 30.37 in 10.0 mi SSE 9.2 mph - N/A   Clear
3:35 PM 24.8 °F 16.9 °F 16.0 °F 69% 30.37 in 10.0 mi SE 6.9 mph - N/A   Clear
3:55 PM 24.4 °F 15.6 °F 16.2 °F 71% 30.37 in 10.0 mi SE 8.1 mph - N/A   Clear
4:15 PM 23.9 °F 16.8 °F 16.2 °F 72% 30.36 in 10.0 mi SE 5.8 mph - N/A   Clear
4:35 PM 23.7 °F 16.6 °F 16.2 °F 73% 30.35 in 10.0 mi SE 5.8 mph - N/A   Clear
4:55 PM 23.5 °F 15.4 °F 16.3 °F 74% 30.34 in 10.0 mi SE 6.9 mph - N/A   Clear
5:15 PM 23.5 °F 15.4 °F 16.5 °F 75% 30.33 in 10.0 mi SE 6.9 mph - N/A   Clear
5:35 PM 22.6 °F 13.4 °F 16.2 °F 76% 30.32 in 10.0 mi ESE 8.1 mph - N/A   Clear
5:55 PM 22.5 °F 13.2 °F 16.5 °F 78% 30.32 in 10.0 mi ESE 8.1 mph - N/A   Clear
6:15 PM 22.3 °F 11.5 °F 16.5 °F 79% 30.31 in 10.0 mi SE 10.4 mph - N/A   Clear
6:35 PM 22.1 °F 11.3 °F 16.5 °F 79% 30.30 in 10.0 mi SE 10.4 mph - N/A   Clear
6:55 PM 22.6 °F 13.4 °F 16.7 °F 78% 30.30 in 10.0 mi SE 8.1 mph - N/A   Scattered Clouds
7:15 PM 23.7 °F 12.6 °F 17.6 °F 77% 30.29 in 10.0 mi SE 11.5 mph - N/A   Overcast
7:35 PM 24.4 °F 14.2 °F 17.6 °F 75% 30.28 in 10.0 mi SSE 10.4 mph 16.1 mph N/A   Overcast
7:55 PM 24.8 °F 14.6 °F 17.6 °F 74% 30.27 in 10.0 mi SSE 10.4 mph 18.4 mph N/A   Overcast
8:15 PM 25.2 °F 13.9 °F 17.6 °F 73% 30.25 in 10.0 mi SSE 12.7 mph 19.6 mph N/A   Overcast
8:35 PM 25.2 °F 13.9 °F 17.6 °F 73% 30.24 in 10.0 mi SSE 12.7 mph 21.9 mph N/A   Overcast
8:55 PM 25.3 °F 12.6 °F 17.6 °F 72% 30.23 in 10.0 mi SSE 16.1 mph 20.7 mph N/A   Overcast
9:15 PM 25.5 °F 14.3 °F 17.6 °F 72% 30.23 in 10.0 mi SSE 12.7 mph - N/A   Overcast
9:35 PM 25.7 °F 17.1 °F 18.1 °F 73% 30.23 in 10.0 mi SSE 8.1 mph 19.6 mph N/A   Overcast
9:55 PM 26.1 °F 16.8 °F 18.3 °F 73% 30.24 in 10.0 mi SSE 9.2 mph - N/A   Overcast
10:15 PM 26.4 °F 16.6 °F 18.5 °F 72% 30.24 in 10.0 mi SSE 10.4 mph - N/A   Overcast
10:35 PM 26.6 °F 20.0 °F 19.0 °F 73% 30.24 in 10.0 mi South 5.8 mph - N/A   Overcast
10:55 PM 26.6 °F 17.5 °F 19.2 °F 74% 30.23 in 10.0 mi SSE 9.2 mph - N/A   Overcast
11:15 PM 27.1 °F 19.7 °F 19.6 °F 73% 30.23 in 10.0 mi South 6.9 mph - N/A   Overcast
11:35 PM 27.3 °F 20.9 °F 19.6 °F 73% 30.22 in 10.0 mi South 5.8 mph - N/A   Overcast
11:55 PM 27.3 °F 18.4 °F 19.4 °F 72% 30.21 in 10.0 mi SSE 9.2 mph - N/A   Overcast